Airfield :
LOGIN :

Register | Disclaimer

   EN    FR    IT 

 










Legend :    VFR   Marginal VFR   IFR   Intensive IFR   Very Intensive IFR
Visi :
Ceiling :
>= 8 km
>= 3000ft
5 to 8 km
1000 to 3000 ft
1500m to 5 km
500 to 1000 ft
800 to 1500m
200 to 500 ft
< 800m
< 200 ft
Symbols :   Thunderstorms  Fog  Heavy snow  Heavy precipitations  Wind > 20 kt
SIGMETs :     Misc.  Thunderstorms  Icing  Turbulence  Mountain Waves  Volcanic Ashes







- Airport Elevation : 915 ft
- IATA code : LUG


LSZA - Lugano

CURRENT METAR :
  • 291050Z VRB03KT 9999 FEW060 15/M04 Q1017 NOSIG

EXPIRED METARs :
  • 291020Z VRB03KT 9999 FEW060 15/M03 Q1017 NOSIG
  • 290950Z 20003KT 160V230 9999 FEW060 15/M04 Q1017 NOSIG
  • 290920Z VRB02KT CAVOK 14/M04 Q1017 NOSIG
  • 290850Z 20004KT 170V230 CAVOK 12/M02 Q1017 NOSIG
  • 290820Z 19005KT CAVOK 11/M02 Q1017 NOSIG

TAF TAF LSZA
Valid from the 29 at 09:00 until the 29 at 18:00 UTC


290825Z 2909/2918 18007KT CAVOK
TEMPO 2910/2917 9999 FEW060
ATIS : +41 22 417 40 88
No reported NOTAMs for that airfield.



MET'MAP, your aeronautical weather chart ! - Copyright ORBIFLY December 2007 - Disclaimer

ORBIFLY MET'MAP TEAM :

Programming & Development : Alexandra Zaïnal
Concept & Development : Baudouin d'Aumeries
Co-Development & Prog : Marc-Olivier Méhu
Technical & hardware support : Manuel Goepfert

Contact : metmap@orbifly.com




SOURCES & CREDITS :

   NOAA